When you browse on this site, cookies collect data to enhance your experience and personalize the content and advertising you see.
Visit our Privacy Policy to learn more. By continuing to use the site, you agree to this use of cookies and data.
  • In Hungary
  • List of Countries
  • For 7 days
  • Water Temperature
  • Satellite Maps
  • Weather Map
  • News
  • Weather Widgets
  • user-avatar
    Login

    Hourly Weather Nabul

    Today, 24 April, Wednesday

    Time Temperature Precipitation Wind Pressure Humidity
    00:00 +17°C° 0 mm 3 mps 757 mmHg 86%
    01:00 +16°C° 0 mm 3 mps 757 mmHg 89%
    02:00 +16°C° 0 mm 2 mps 757 mmHg 89%
    03:00 +16°C° 0 mm 2 mps 757 mmHg 88%
    04:00 +15°C° 0 mm 1 mps 757 mmHg 88%
    05:00 +16°C° 0 mm 1 mps 757 mmHg 81%
    06:00 +19°C° 0 mm 1 mps 757 mmHg 75%
    07:00 +18°C° 0 mm 0 mps 757 mmHg 68%
    08:00 +22°C° 0 mm 1 mps 758 mmHg 58%
    09:00 +24°C° 0 mm 1 mps 758 mmHg 48%
    10:00 +27°C° 0 mm 2 mps 758 mmHg 38%
    11:00 +27°C° 0 mm 3 mps 758 mmHg 37%
    12:00 +28°C° 0 mm 4 mps 759 mmHg 36%
    13:00 +28°C° 0 mm 4 mps 759 mmHg 35%
    14:00 +28°C° 0 mm 5 mps 759 mmHg 39%
    15:00 +27°C° 0 mm 5 mps 759 mmHg 43%
    16:00 +26°C° 0 mm 6 mps 759 mmHg 46%
    17:00 +25°C° 0 mm 5 mps 759 mmHg 54%
    18:00 +22°C° 0 mm 5 mps 759 mmHg 61%
    19:00 +20°C° 0 mm 5 mps 759 mmHg 69%
    20:00 +20°C° 0 mm 4 mps 760 mmHg 71%
    21:00 +19°C° 0 mm 4 mps 761 mmHg 72%
    22:00 +19°C° 0 mm 3 mps 761 mmHg 74%
    23:00 +18°C° 0 mm 3 mps 761 mmHg 76%

    Tomorrow, 25 April, Thursday

    Time Temperature Precipitation Wind Pressure Humidity
    00:00 +18°C° 0 mm 2 mps 761 mmHg 77%
    01:00 +17°C° 0 mm 2 mps 761 mmHg 78%
    02:00 +17°C° 0 mm 2 mps 761 mmHg 79%
    03:00 +17°C° 0 mm 2 mps 761 mmHg 80%
    04:00 +16°C° 0 mm 2 mps 760 mmHg 81%
    05:00 +17°C° 0 mm 2 mps 761 mmHg 78%
    06:00 +18°C° 0 mm 2 mps 761 mmHg 74%
    07:00 +18°C° 0 mm 2 mps 761 mmHg 71%
    08:00 +20°C° 0 mm 2 mps 761 mmHg 64%
    09:00 +23°C° 0 mm 2 mps 761 mmHg 57%
    10:00 +25°C° 0 mm 2 mps 762 mmHg 50%
    11:00 +26°C° 0 mm 2 mps 762 mmHg 48%
    12:00 +27°C° 0 mm 3 mps 761 mmHg 46%
    13:00 +28°C° 0 mm 4 mps 761 mmHg 44%
    14:00 +27°C° 0 mm 4 mps 761 mmHg 46%
    15:00 +27°C° 0 mm 4 mps 761 mmHg 48%
    16:00 +27°C° 0 mm 4 mps 761 mmHg 49%
    17:00 +25°C° 0 mm 3 mps 761 mmHg 56%
    18:00 +22°C° 0 mm 3 mps 761 mmHg 63%
    19:00 +20°C° 0 mm 3 mps 762 mmHg 71%
    20:00 +20°C° 0 mm 2 mps 762 mmHg 74%
    21:00 +19°C° 0 mm 2 mps 763 mmHg 78%
    22:00 +19°C° 0 mm 1 mps 763 mmHg 82%
    23:00 +19°C° 0 mm 1 mps 763 mmHg 83%

    Day after tomorrow, 26 April, Friday

    Time Temperature Precipitation Wind Pressure Humidity
    00:00 +18°C° 0 mm 1 mps 763 mmHg 85%
    01:00 +18°C° 0 mm 1 mps 763 mmHg 86%
    02:00 +18°C° 0 mm 1 mps 763 mmHg 87%
    03:00 +18°C° 0 mm 1 mps 763 mmHg 87%
    04:00 +16°C° 0 mm 1 mps 763 mmHg 88%
    05:00 +18°C° 0 mm 1 mps 763 mmHg 84%
    06:00 +19°C° 0 mm 1 mps 763 mmHg 81%
    07:00 +17°C° 0 mm 0 mps 763 mmHg 78%
    08:00 +21°C° 0 mm 1 mps 764 mmHg 70%
    09:00 +23°C° 0 mm 2 mps 764 mmHg 63%
    10:00 +25°C° 0 mm 3 mps 765 mmHg 55%
    11:00 +26°C° 0 mm 3 mps 765 mmHg 53%
    12:00 +27°C° 0 mm 4 mps 765 mmHg 50%
    13:00 +27°C° 0 mm 5 mps 765 mmHg 48%
    14:00 +27°C° 0 mm 6 mps 765 mmHg 47%
    15:00 +26°C° 0 mm 7 mps 765 mmHg 47%
    16:00 +26°C° 0 mm 8 mps 765 mmHg 46%
    17:00 +23°C° 0 mm 7 mps 765 mmHg 50%
    18:00 +22°C° 0 mm 7 mps 765 mmHg 54%
    19:00 +20°C° 0 mm 6 mps 765 mmHg 58%
    20:00 +19°C° 0 mm 6 mps 765 mmHg 60%
    21:00 +17°C° 0 mm 6 mps 766 mmHg 62%
    22:00 +16°C° 0 mm 6 mps 766 mmHg 64%
    23:00 +16°C° 0 mm 6 mps 766 mmHg 66%

    27 April, Saturday

    Time Temperature Precipitation Wind Pressure Humidity
    00:00 +16°C° 0 mm 6 mps 766 mmHg 68%
    01:00 +16°C° 0 mm 7 mps 766 mmHg 70%
    02:00 +15°C° 0.2 mm 6 mps 766 mmHg 72%
    03:00 +15°C° 0.2 mm 6 mps 766 mmHg 75%
    04:00 +14°C° 0.2 mm 6 mps 766 mmHg 78%
    05:00 +14°C° 0 mm 7 mps 766 mmHg 74%
    06:00 +15°C° 0 mm 7 mps 766 mmHg 71%
    07:00 +15°C° 0 mm 8 mps 766 mmHg 68%
    08:00 +16°C° 0 mm 9 mps 767 mmHg 61%
    09:00 +18°C° 0 mm 9 mps 767 mmHg 54%
    10:00 +19°C° 0 mm 10 mps 767 mmHg 47%
    11:00 +21°C° 0 mm 9 mps 767 mmHg 44%
    12:00 +22°C° 0 mm 9 mps 767 mmHg 41%
    13:00 +23°C° 0 mm 9 mps 766 mmHg 38%
    14:00 +22°C° 0 mm 9 mps 766 mmHg 38%
    15:00 +22°C° 0 mm 9 mps 766 mmHg 37%
    16:00 +22°C° 0 mm 9 mps 766 mmHg 37%
    17:00 +20°C° 0 mm 8 mps 766 mmHg 41%
    18:00 +18°C° 0 mm 7 mps 766 mmHg 45%
    19:00 +16°C° 0 mm 6 mps 766 mmHg 48%
    20:00 +15°C° 0 mm 6 mps 767 mmHg 55%
    21:00 +14°C° 0 mm 5 mps 767 mmHg 62%
    22:00 +13°C° 0 mm 5 mps 767 mmHg 68%
    23:00 +13°C° 0 mm 5 mps 767 mmHg 71%

    28 April, Sunday

    Time Temperature Precipitation Wind Pressure Humidity
    00:00 +12°C° 0 mm 5 mps 767 mmHg 74%
    01:00 +12°C° 0 mm 5 mps 766 mmHg 76%
    02:00 +12°C° 0 mm 5 mps 766 mmHg 78%
    03:00 +12°C° 0 mm 5 mps 766 mmHg 79%
    04:00 +10°C° 0 mm 5 mps 765 mmHg 80%
    05:00 +12°C° 0 mm 5 mps 765 mmHg 78%
    06:00 +13°C° 0 mm 5 mps 765 mmHg 76%
    07:00 +13°C° 0 mm 5 mps 765 mmHg 74%
    08:00 +15°C° 0 mm 6 mps 765 mmHg 67%
    09:00 +17°C° 0 mm 6 mps 765 mmHg 60%
    10:00 +20°C° 0 mm 6 mps 765 mmHg 54%
    11:00 +21°C° 0 mm 6 mps 765 mmHg 50%
    12:00 +22°C° 0 mm 6 mps 764 mmHg 47%
    13:00 +23°C° 0 mm 5 mps 764 mmHg 44%
    14:00 +23°C° 0 mm 5 mps 764 mmHg 44%
    15:00 +23°C° 0 mm 6 mps 763 mmHg 44%
    16:00 +22°C° 0 mm 6 mps 763 mmHg 44%
    17:00 +21°C° 0 mm 6 mps 763 mmHg 48%
    18:00 +20°C° 0 mm 6 mps 763 mmHg 52%
    19:00 +17°C° 0 mm 6 mps 763 mmHg 55%
    20:00 +16°C° 0 mm 5 mps 763 mmHg 60%
    21:00 +15°C° 0 mm 4 mps 764 mmHg 64%
    22:00 +14°C° 0 mm 3 mps 764 mmHg 69%
    23:00 +14°C° 0 mm 3 mps 764 mmHg 70%

    29 April, Monday

    Time Temperature Precipitation Wind Pressure Humidity
    00:00 +13°C° 0 mm 3 mps 764 mmHg 71%
    01:00 +13°C° 0 mm 3 mps 764 mmHg 73%
    02:00 +14°C° 0 mm 2 mps 764 mmHg 73%
    03:00 +14°C° 0 mm 2 mps 763 mmHg 72%
    04:00 +13°C° 0 mm 2 mps 763 mmHg 72%
    05:00 +14°C° 0 mm 2 mps 763 mmHg 70%
    06:00 +15°C° 0 mm 2 mps 763 mmHg 68%
    07:00 +16°C° 0 mm 2 mps 763 mmHg 65%
    08:00 +18°C° 0 mm 1 mps 763 mmHg 59%
    09:00 +20°C° 0 mm 1 mps 763 mmHg 53%
    10:00 +21°C° 0 mm 1 mps 763 mmHg 47%
    11:00 +22°C° 0 mm 1 mps 763 mmHg 44%
    12:00 +23°C° 0 mm 2 mps 762 mmHg 40%
    13:00 +25°C° 0 mm 2 mps 762 mmHg 37%
    14:00 +25°C° 0 mm 3 mps 761 mmHg 39%
    15:00 +25°C° 0 mm 5 mps 761 mmHg 40%
    16:00 +24°C° 0 mm 6 mps 760 mmHg 42%
    17:00 +22°C° 0 mm 5 mps 760 mmHg 50%
    18:00 +20°C° 0 mm 5 mps 761 mmHg 59%
    19:00 +18°C° 0 mm 4 mps 761 mmHg 67%
    20:00 +18°C° 0 mm 4 mps 761 mmHg 72%
    21:00 +17°C° 0 mm 3 mps 762 mmHg 76%
    22:00 +16°C° 0 mm 2 mps 762 mmHg 81%
    23:00 +16°C° 0 mm 2 mps 762 mmHg 82%
    Show more